Decoded METAR for LFQQ provided by aerobaticsweb.org
Current time: Monday, 25 Jan, 2021, 17:23 UTC
(This may take a minute, please be patient)


The most recent METAR observation from LFQQ in our system was generated at 2021/01/25 17:00

Original METAR code

2021/01/25 17:00
LFQQ 251700Z AUTO 26008KT 9999 FEW026 03/M00 Q1011 NOSIG
METAR Observation for: LFQQ
Date/Time of Observation: 25 January 2021, 17:00 UTC (25 January 2021, 18:00 CET)
METAR Modifier: Automated weather observation
Wind: From 260° at 8 kts (15 km/h)
Visibility: 10 km (6 sm) or greater
Sky Conditions: Few clouds at 2600 ft
Temperature: 3.0° C (37.4° F)
Dew Point: 0.0° C (32.0° F)
Relative Humidity: 81%
Altimeter: 1011 hPa/mbar (29.86" Hg)

Remarks:

No significant change expected


This decoding software is in development. If you see any mistakes in the decoding or an unparsed field that you know how to decode, please complete the Decode report form.

24 Hour Summary

Time (UTC) Temperature
°C (°F)
Dew Point
°C (°F)
Pressure
Inches (hPa)
Wind
mph (km/h)
Weather
00:00 25 January 2 (35 ) 1 (33 ) 29.41 (0996) SSW 5 (8)
01:00 25 January 1 (33 ) 0 (32 ) 29.41 (0996) SW 6 (10)
02:00 25 January 1 (33 ) 1 (33 ) 29.44 (0997) S 5 (8)
03:00 25 January 1 (33 ) 0 (32 ) 29.44 (0997) SSE 3 (5)
04:00 25 January 1 (33 ) 0 (32 ) 29.47 (0998) SE 3 (5)
05:00 25 January 1 (33 ) 0 (32 ) 29.53 (1000) N 6 (10)
06:00 25 January 2 (35 ) 1 (33 ) 29.56 (1001) N 7 (11)
07:00 25 January 2 (35 ) 1 (33 ) 29.62 (1003) N 13 (21) light drizzle
08:00 25 January 1 (33 ) 0 (32 ) 29.65 (1004) NNW 12 (19)
09:00 25 January 2 (35 ) 1 (33 ) 29.68 (1005) NNW 7 (11)
10:00 25 January 4 (39 ) 1 (33 ) 29.74 (1007) N 10 (16)
11:00 25 January 5 (41 ) 2 (35 ) 29.77 (1008) NW 9 (14)
12:00 25 January 4 (39 ) 1 (33 ) 29.77 (1008) W 10 (16)
13:00 25 January 5 (41 ) 1 (33 ) 29.80 (1009) WNW 9 (14)
14:00 25 January 5 (41 ) -1 (30 ) 29.80 (1009) WNW 13 (21)
15:00 25 January 5 (41 ) 0 (32 ) 29.83 (1010) W 13 (21)
16:00 25 January 3 (37 ) 0 (32 ) 29.85 (1011) W 8 (13)
17:00 25 January 3 (37 ) 0 (32 ) 29.85 (1011) W 9 (14)
18:00 24 January 1 (33 ) 0 (32 ) 29.38 (0995) S 12 (19) light snow, rain
19:00 24 January 1 (33 ) 1 (33 ) 29.38 (0995) S 12 (19)
20:00 24 January 1 (33 ) 1 (33 ) 29.38 (0995) SSW 12 (19)
21:00 24 January 2 (35 ) 1 (33 ) 29.38 (0995) SSW 6 (10)
22:00 24 January 2 (35 ) 1 (33 ) 29.38 (0995) SSW 8 (13)
23:00 24 January 2 (35 ) 1 (33 ) 29.41 (0996) SSW 7 (11)
The information presented here is taken from products produced by the U.S. National Weather Service and other national and international agencies. Landings.com does not present this as official information. Please refer to official weather briefings for flight critical information.


access provided by Dr. Guenther Eichhorn at aerobaticsweb.org